| time (UTC) | temp C | wind direction | speed KPH | gust KPH | rain 1hr cm | rain 24hr cm | rain mn cm | humidity % | barometer mb |
| 20260504081550 | 9 | 345 | 30.6 | 43.5 | 0.00 | 0.00 | 0.00 | 50 | 1015.6 |
| 20260504044547 | 13 | 345 | 17.7 | 22.5 | 0.00 | 0.00 | 0.00 | 38 | 1010.4 |
| 20260504043051 | 13 | 345 | 16.1 | 20.9 | 0.00 | 0.00 | 0.00 | 37 | 1009.9 |
| 20260504041557 | 14 | 345 | 20.9 | 32.2 | 0.00 | 0.00 | 0.00 | 36 | 1009.6 |
| 20260504040050 | 15 | 68 | 24.1 | 32.2 | 0.00 | 0.00 | 0.00 | 36 | 1009.2 |
| 20260504034543 | 15 | 345 | 22.5 | 32.2 | 0.00 | 0.00 | 0.00 | 36 | 1009.0 |
| 20260504033047 | 15 | 68 | 27.4 | 43.5 | 0.00 | 0.00 | 0.00 | 35 | 1008.6 |
| 20260504031550 | 16 | 68 | 27.4 | 37.0 | 0.00 | 0.00 | 0.00 | 33 | 1008.2 |
| 20260504030047 | 17 | 66 | 24.1 | 33.8 | 0.00 | 0.00 | 0.00 | 26 | 1007.9 |
| 20260504024554 | 17 | 345 | 11.3 | 14.5 | 0.00 | 0.00 | 0.00 | 25 | 1007.5 |
| 20260504023043 | 18 | 345 | 8.0 | 16.1 | 0.00 | 0.00 | 0.00 | 24 | 1007.4 |
| 20260504021610 | 19 | 345 | 11.3 | 17.7 | 0.00 | 0.00 | 0.00 | 23 | 1007.3 |
| 20260504020042 | 20 | 345 | 12.9 | 20.9 | 0.00 | 0.00 | 0.00 | 22 | 1007.2 |
| 20260504014548 | 21 | 53 | 16.1 | 22.5 | 0.00 | 0.00 | 0.00 | 21 | 1007.3 |
| 20260504013045 | 22 | 345 | 20.9 | 33.8 | 0.00 | 0.00 | 0.00 | 20 | 1007.3 |
| 20260504011543 | 22 | 345 | 22.5 | 32.2 | 0.00 | 0.00 | 0.00 | 20 | 1007.3 |
| 20260504010041 | 23 | 345 | 24.1 | 32.2 | 0.00 | 0.00 | 0.00 | 19 | 1007.3 |
| 20260504004545 | 23 | 345 | 17.7 | 29.0 | 0.00 | 0.00 | 0.00 | 19 | 1007.2 |
| 20260504003045 | 23 | 345 | 20.9 | 29.0 | 0.00 | 0.00 | 0.00 | 19 | 1007.4 |
| 20260504001546 | 23 | 345 | 22.5 | 32.2 | 0.00 | 0.00 | 0.00 | 19 | 1007.6 |
| 20260504000112 | 23 | 345 | 20.9 | 38.6 | 0.00 | 0.00 | 0.00 | 18 | 1007.6 |
| 20260503234550 | 23 | 345 | 16.1 | 25.7 | 0.00 | 0.00 | 0.00 | 18 | 1007.6 |
| 20260503233039 | 23 | 345 | 20.9 | 29.0 | 0.00 | 0.00 | 0.00 | 19 | 1007.7 |
| 20260503231548 | 23 | 345 | 11.3 | 32.2 | 0.00 | 0.00 | 0.00 | 18 | 1007.8 |
| 20260503230049 | 23 | 345 | 25.7 | 37.0 | 0.00 | 0.00 | 0.00 | 19 | 1008.0 |
| 20260503224544 | 23 | 345 | 16.1 | 33.8 | 0.00 | 0.00 | 0.00 | 18 | 1008.2 |
| 20260503223042 | 23 | 345 | 11.3 | 30.6 | 0.00 | 0.00 | 0.00 | 18 | 1008.3 |
| 20260503221549 | 23 | 345 | 25.7 | 38.6 | 0.00 | 0.00 | 0.00 | 18 | 1008.8 |
| 20260503220040 | 23 | 345 | 19.3 | 33.8 | 0.00 | 0.00 | 0.00 | 18 | 1008.9 |
| 20260503214546 | 22 | 345 | 19.3 | 35.4 | 0.00 | 0.00 | 0.00 | 17 | 1009.1 |
| 20260503213046 | 22 | 345 | 22.5 | 32.2 | 0.00 | 0.00 | 0.00 | 17 | 1009.3 |
| 20260503211544 | 22 | 345 | 12.9 | 25.7 | 0.00 | 0.00 | 0.00 | 17 | 1009.6 |
| 20260503210041 | 22 | 345 | 20.9 | 37.0 | 0.00 | 0.00 | 0.00 | 18 | 1009.9 |
| 20260503204540 | 22 | 345 | 20.9 | 33.8 | 0.00 | 0.00 | 0.00 | 18 | 1009.9 |
| 20260503203103 | 21 | 345 | 20.9 | 33.8 | 0.00 | 0.00 | 0.00 | 18 | 1010.1 |
| 20260503201546 | 21 | 345 | 16.1 | 38.6 | 0.00 | 0.00 | 0.00 | 18 | 1010.4 |
| 20260503200045 | 21 | 345 | 20.9 | 35.4 | 0.00 | 0.00 | 0.00 | 18 | 1010.7 |
| 20260503194554 | 21 | 345 | 19.3 | 38.6 | 0.00 | 0.00 | 0.00 | 19 | 1010.8 |
| 20260503193040 | 20 | 345 | 9.7 | 35.4 | 0.00 | 0.00 | 0.00 | 21 | 1010.9 |
| 20260503191546 | 20 | 345 | 19.3 | 32.2 | 0.00 | 0.00 | 0.00 | 21 | 1011.4 |
| 20260503190045 | 20 | 345 | 12.9 | 33.8 | 0.00 | 0.00 | 0.00 | 21 | 1011.7 |
| 20260503184544 | 20 | 345 | 14.5 | 29.0 | 0.00 | 0.00 | 0.00 | 22 | 1011.8 |
| 20260503183050 | 19 | 345 | 19.3 | 33.8 | 0.00 | 0.00 | 0.00 | 23 | 1012.0 |
| 20260503181559 | 19 | 345 | 14.5 | 32.2 | 0.00 | 0.00 | 0.00 | 23 | 1012.3 |
| 20260503180040 | 19 | 345 | 20.9 | 32.2 | 0.00 | 0.00 | 0.00 | 24 | 1012.4 |
| 20260503174544 | 19 | 345 | 17.7 | 29.0 | 0.00 | 0.00 | 0.00 | 25 | 1012.6 |
| 20260503173052 | 18 | 345 | 22.5 | 30.6 | 0.00 | 0.00 | 0.00 | 25 | 1012.8 |
| 20260503171540 | 18 | 345 | 20.9 | 29.0 | 0.00 | 0.00 | 0.00 | 26 | 1012.7 |